• în România
  • Lista ţărilor
  • Pe 7 zile
  • Temperatura apei
  • Hartă satelitară
  • Meteo pe hartă
  • Widget-uri
  • user-avatar
    Intrare

    Meteo pe oră la Canberra

    Astăzi, 18 Noiembrie, Sâmbătă

    Timp Temperatura Precipitaţii Vânt Presiune Umiditate
    00:00 +14°C° 0 mm 3 m/s 710 mmHg 94%
    01:00 +14°C° 0 mm 3 m/s 710 mmHg 94%
    02:00 +14°C° 0 mm 3 m/s 710 mmHg 94%
    03:00 +14°C° 0 mm 3 m/s 710 mmHg 95%
    04:00 +14°C° 0 mm 2 m/s 710 mmHg 95%
    05:00 +15°C° 0 mm 2 m/s 710 mmHg 93%
    06:00 +14°C° 0 mm 3 m/s 711 mmHg 92%
    07:00 +16°C° 0 mm 3 m/s 711 mmHg 90%
    08:00 +16°C° 0,5 mm 3 m/s 711 mmHg 89%
    09:00 +17°C° 0,5 mm 3 m/s 711 mmHg 88%
    10:00 +17°C° 0,5 mm 3 m/s 711 mmHg 87%
    11:00 +17°C° 1 mm 4 m/s 712 mmHg 88%
    12:00 +17°C° 1 mm 4 m/s 712 mmHg 89%
    13:00 +17°C° 1 mm 4 m/s 712 mmHg 90%
    14:00 +17°C° 0,8 mm 4 m/s 712 mmHg 91%
    15:00 +17°C° 0,8 mm 4 m/s 711 mmHg 92%
    16:00 +15°C° 0,8 mm 4 m/s 711 mmHg 93%
    17:00 +15°C° 0,2 mm 4 m/s 712 mmHg 94%
    18:00 +14°C° 0,2 mm 4 m/s 712 mmHg 94%
    19:00 +14°C° 0,2 mm 3 m/s 712 mmHg 95%
    20:00 +13°C° 0 mm 3 m/s 712 mmHg 95%
    21:00 +13°C° 0 mm 3 m/s 712 mmHg 96%
    22:00 +13°C° 0 mm 3 m/s 712 mmHg 96%
    23:00 +13°C° 0 mm 3 m/s 712 mmHg 96%

    Mâine, 19 Noiembrie, Duminică

    Timp Temperatura Precipitaţii Vânt Presiune Umiditate
    00:00 +12°C° 0 mm 3 m/s 712 mmHg 96%
    01:00 +12°C° 0 mm 3 m/s 712 mmHg 96%
    02:00 +13°C° 0 mm 2 m/s 712 mmHg 96%
    03:00 +12°C° 0 mm 2 m/s 712 mmHg 97%
    04:00 +12°C° 0 mm 2 m/s 712 mmHg 97%
    05:00 +13°C° 0 mm 2 m/s 713 mmHg 95%
    06:00 +14°C° 0 mm 2 m/s 713 mmHg 92%
    07:00 +14°C° 0 mm 2 m/s 714 mmHg 90%
    08:00 +16°C° 0 mm 3 m/s 714 mmHg 78%
    09:00 +19°C° 0 mm 3 m/s 714 mmHg 67%
    10:00 +21°C° 0 mm 4 m/s 715 mmHg 55%
    11:00 +22°C° 0 mm 4 m/s 714 mmHg 52%
    12:00 +23°C° 0 mm 4 m/s 714 mmHg 49%
    13:00 +25°C° 0 mm 4 m/s 714 mmHg 46%
    14:00 +23°C° 0 mm 4 m/s 714 mmHg 48%
    15:00 +23°C° 0 mm 4 m/s 714 mmHg 51%
    16:00 +22°C° 0 mm 4 m/s 713 mmHg 53%
    17:00 +20°C° 0 mm 4 m/s 714 mmHg 62%
    18:00 +18°C° 0 mm 4 m/s 714 mmHg 70%
    19:00 +16°C° 0 mm 3 m/s 714 mmHg 79%
    20:00 +16°C° 0 mm 3 m/s 714 mmHg 84%
    21:00 +14°C° 0 mm 3 m/s 714 mmHg 90%
    22:00 +13°C° 0 mm 3 m/s 715 mmHg 95%
    23:00 +14°C° 0 mm 2 m/s 715 mmHg 94%

    Poimâine, 20 Noiembrie, Luni

    Timp Temperatura Precipitaţii Vânt Presiune Umiditate
    00:00 +14°C° 0 mm 2 m/s 715 mmHg 93%
    01:00 +14°C° 0 mm 2 m/s 715 mmHg 92%
    02:00 +14°C° 0 mm 2 m/s 714 mmHg 94%
    03:00 +13°C° 0 mm 2 m/s 714 mmHg 95%
    04:00 +13°C° 0 mm 1 m/s 714 mmHg 97%
    05:00 +13°C° 0 mm 2 m/s 715 mmHg 93%
    06:00 +14°C° 0 mm 2 m/s 715 mmHg 89%
    07:00 +15°C° 0 mm 2 m/s 716 mmHg 85%
    08:00 +17°C° 0 mm 2 m/s 716 mmHg 74%
    09:00 +19°C° 0 mm 3 m/s 716 mmHg 64%
    10:00 +20°C° 0 mm 3 m/s 716 mmHg 54%
    11:00 +21°C° 0 mm 3 m/s 716 mmHg 51%
    12:00 +22°C° 0 mm 3 m/s 716 mmHg 48%
    13:00 +23°C° 0 mm 4 m/s 715 mmHg 46%
    14:00 +23°C° 0 mm 4 m/s 715 mmHg 47%
    15:00 +23°C° 0 mm 4 m/s 715 mmHg 48%
    16:00 +23°C° 0 mm 4 m/s 714 mmHg 50%
    17:00 +21°C° 0 mm 3 m/s 714 mmHg 59%
    18:00 +19°C° 0 mm 3 m/s 714 mmHg 69%
    19:00 +17°C° 0 mm 3 m/s 714 mmHg 79%
    20:00 +16°C° 0 mm 3 m/s 715 mmHg 85%
    21:00 +15°C° 0 mm 2 m/s 715 mmHg 90%
    22:00 +14°C° 0 mm 2 m/s 715 mmHg 96%
    23:00 +14°C° 0 mm 2 m/s 715 mmHg 95%

    21 Noiembrie, Marţi

    Timp Temperatura Precipitaţii Vânt Presiune Umiditate
    00:00 +14°C° 0 mm 2 m/s 715 mmHg 94%
    01:00 +14°C° 0 mm 2 m/s 715 mmHg 93%
    02:00 +13°C° 0 mm 1 m/s 714 mmHg 94%
    03:00 +13°C° 0 mm 1 m/s 714 mmHg 94%
    04:00 +13°C° 0 mm 1 m/s 714 mmHg 95%
    05:00 +14°C° 0 mm 1 m/s 714 mmHg 89%
    06:00 +15°C° 0 mm 2 m/s 715 mmHg 84%
    07:00 +16°C° 0 mm 2 m/s 715 mmHg 79%
    08:00 +18°C° 0 mm 2 m/s 715 mmHg 70%
    09:00 +20°C° 0 mm 2 m/s 715 mmHg 62%
    10:00 +21°C° 0 mm 3 m/s 715 mmHg 54%
    11:00 +22°C° 0 mm 3 m/s 715 mmHg 49%
    12:00 +25°C° 0 mm 3 m/s 715 mmHg 44%
    13:00 +26°C° 0 mm 3 m/s 714 mmHg 40%
    14:00 +25°C° 0 mm 3 m/s 714 mmHg 40%
    15:00 +25°C° 0 mm 3 m/s 713 mmHg 41%
    16:00 +25°C° 0 mm 4 m/s 713 mmHg 42%
    17:00 +22°C° 0 mm 3 m/s 713 mmHg 51%
    18:00 +19°C° 0 mm 3 m/s 713 mmHg 60%
    19:00 +17°C° 0 mm 3 m/s 713 mmHg 69%
    20:00 +14°C° 0 mm 3 m/s 713 mmHg 77%
    21:00 +14°C° 0 mm 2 m/s 713 mmHg 85%
    22:00 +12°C° 0 mm 2 m/s 713 mmHg 93%
    23:00 +12°C° 0 mm 2 m/s 713 mmHg 94%

    22 Noiembrie, Miercuri

    Timp Temperatura Precipitaţii Vânt Presiune Umiditate
    00:00 +11°C° 0 mm 1 m/s 712 mmHg 95%
    01:00 +11°C° 0 mm 1 m/s 712 mmHg 97%
    02:00 +10°C° 0 mm 1 m/s 712 mmHg 97%
    03:00 +10°C° 0 mm 1 m/s 712 mmHg 96%
    04:00 +10°C° 0 mm 1 m/s 712 mmHg 96%
    05:00 +12°C° 0 mm 1 m/s 712 mmHg 90%
    06:00 +14°C° 0 mm 2 m/s 712 mmHg 83%
    07:00 +16°C° 0 mm 2 m/s 713 mmHg 76%
    08:00 +18°C° 0 mm 2 m/s 713 mmHg 66%
    09:00 +20°C° 0 mm 2 m/s 713 mmHg 57%
    10:00 +23°C° 0 mm 2 m/s 713 mmHg 47%
    11:00 +24°C° 0 mm 2 m/s 712 mmHg 44%
    12:00 +25°C° 0 mm 2 m/s 712 mmHg 41%
    13:00 +26°C° 0 mm 2 m/s 711 mmHg 38%
    14:00 +25°C° 0,1 mm 2 m/s 711 mmHg 41%
    15:00 +25°C° 0,1 mm 3 m/s 710 mmHg 45%
    16:00 +24°C° 0,1 mm 3 m/s 710 mmHg 49%
    17:00 +21°C° 0,1 mm 3 m/s 710 mmHg 58%
    18:00 +19°C° 0,1 mm 2 m/s 710 mmHg 68%
    19:00 +17°C° 0,1 mm 2 m/s 710 mmHg 78%
    20:00 +16°C° 0 mm 2 m/s 710 mmHg 83%
    21:00 +14°C° 0 mm 2 m/s 710 mmHg 88%
    22:00 +13°C° 0 mm 1 m/s 711 mmHg 93%
    23:00 +13°C° 0,1 mm 1 m/s 710 mmHg 94%

    23 Noiembrie, Joi

    Timp Temperatura Precipitaţii Vânt Presiune Umiditate
    00:00 +12°C° 0,1 mm 1 m/s 710 mmHg 95%
    01:00 +12°C° 0,1 mm 1 m/s 710 mmHg 96%
    02:00 +11°C° 0 mm 1 m/s 709 mmHg 96%
    03:00 +11°C° 0 mm 1 m/s 709 mmHg 97%
    04:00 +11°C° 0 mm 1 m/s 709 mmHg 97%
    05:00 +13°C° 0 mm 1 m/s 710 mmHg 90%
    06:00 +15°C° 0 mm 1 m/s 710 mmHg 83%
    07:00 +18°C° 0 mm 1 m/s 711 mmHg 76%
    08:00 +20°C° 0 mm 1 m/s 711 mmHg 65%
    09:00 +23°C° 0 mm 1 m/s 711 mmHg 54%
    10:00 +25°C° 0 mm 1 m/s 711 mmHg 44%
    11:00 +26°C° 0,2 mm 2 m/s 711 mmHg 42%
    12:00 +26°C° 0,2 mm 2 m/s 710 mmHg 41%
    13:00 +27°C° 0,2 mm 2 m/s 710 mmHg 40%
    14:00 +26°C° 0,1 mm 2 m/s 710 mmHg 41%
    15:00 +26°C° 0,1 mm 1 m/s 709 mmHg 41%
    16:00 +26°C° 0,1 mm 1 m/s 709 mmHg 42%
    17:00 +24°C° 0 mm 1 m/s 709 mmHg 49%
    18:00 +22°C° 0 mm 1 m/s 709 mmHg 57%
    19:00 +20°C° 0 mm 1 m/s 709 mmHg 64%
    20:00 +18°C° 0,2 mm 1 m/s 709 mmHg 73%
    21:00 +16°C° 0,2 mm 1 m/s 709 mmHg 81%
    22:00 +14°C° 0,2 mm 1 m/s 710 mmHg 89%
    23:00 +14°C° 0,2 mm 1 m/s 710 mmHg 91%
    Arată mai mult